Change the Weather History Date:

Thursday, October 11, 2012

  Actual Average (KBRL) Record (KBRL)
Temperature  
Mean Temperature 54 °F 57 °F  
Max Temperature 71 °F 68 °F 88 °F (1962)
Min Temperature 38 °F 46 °F 25 °F (1987)
Degree Days  
Heating Degree Days 10 9  
Month to date heating degree days 81  
Since 1 July heating degree days 152  
Cooling Degree Days 0 1  
Month to date cooling degree days 14  
Year to date cooling degree days 1196  
Growing Degree Days 4 (Base 50)    
Moisture  
Dew Point 36 °F    
Average Humidity 54    
Maximum Humidity 78    
Minimum Humidity 29    
Precipitation  
Precipitation 0.00 in 0.10 in 0.44 in (1954)
Month to date precipitation 1.18  
Year to date precipitation 31.95  
Sea Level Pressure  
Sea Level Pressure 30.16 in    
Wind  
Wind Speed 10 mph (SSW)    
Max Wind Speed 18 mph    
Max Gust Speed 24 mph    
Visibility 10 miles    
Events      
T = Trace of Precipitation, MM = Missing Value Source: NWS Daily Summary

Daily Weather History Graph

Daily Weather History Graph

Search for Another Location

Airport or City:

Trip Planner

Search our weather history database for the weather conditions in past years. The results will help you decide how hot, cold, wet, or windy it might be!

Date:

Astronomy

Oct. 11, 2012 Rise Set
Actual Time 7:09 AM CDT 6:27 PM CDT
Civil Twilight 6:42 AM CDT 6:55 PM CDT
Nautical Twilight 6:10 AM CDT 7:26 PM CDT
Astronomical Twilight 5:39 AM CDT 7:58 PM CDT
Moon 2:47 AM CDT (10/11) 4:05 PM CDT (10/11)
Length of Visible Light 12h 12m
Length of Day
11h 17m
Waning Crescent, 18% of the Moon is Illuminated
Oct 11
Waning Crescent
Oct 15
New
Oct 21
First Quarter
Oct 29
Full
Nov 6
Last Quarter

Hourly Weather History & Observations

Time (CDT) Temp. Windchill Dew Point Humidity Pressure Visibility Wind Dir Wind Speed Gust Speed Precip Events Conditions
12:15 AM 41.0 °F 35.2 °F 32.0 °F 70% 30.19 in 10.0 mi SSW 9.2 mph - N/A   Clear
12:35 AM 41.4 °F 35.7 °F 32.0 °F 69% 30.19 in 10.0 mi SSW 9.2 mph - N/A   Clear
12:55 AM 41.4 °F 36.2 °F 32.0 °F 69% 30.19 in 10.0 mi SSW 8.1 mph - N/A   Clear
1:15 AM 40.8 °F 35.6 °F 32.0 °F 71% 30.19 in 10.0 mi SSW 8.1 mph - N/A   Clear
1:35 AM 41.0 °F 35.8 °F 32.0 °F 70% 30.19 in 10.0 mi SSW 8.1 mph - N/A   Clear
1:55 AM 40.6 °F 35.4 °F 32.0 °F 71% 30.18 in 10.0 mi SSW 8.1 mph - N/A   Clear
2:15 AM 39.9 °F 34.5 °F 32.0 °F 73% 30.18 in 10.0 mi SSW 8.1 mph - N/A   Clear
2:35 AM 39.2 °F 33.6 °F 32.0 °F 75% 30.19 in 10.0 mi SSW 8.1 mph - N/A   Clear
2:55 AM 40.1 °F 34.7 °F 32.0 °F 73% 30.18 in 10.0 mi SSW 8.1 mph - N/A   Clear
3:15 AM 38.8 °F 32.6 °F 32.0 °F 76% 30.18 in 10.0 mi South 9.2 mph - N/A   Clear
3:35 AM 38.7 °F 32.9 °F 32.0 °F 77% 30.18 in 10.0 mi South 8.1 mph - N/A   Clear
3:55 AM 39.6 °F 34.0 °F 32.0 °F 74% 30.18 in 10.0 mi SSW 8.1 mph - N/A   Clear
4:15 AM 41.0 °F 35.8 °F 32.0 °F 70% 30.19 in 10.0 mi SSW 8.1 mph - N/A   Clear
4:35 AM 41.0 °F 35.8 °F 32.0 °F 70% 30.18 in 10.0 mi SSW 8.1 mph - N/A   Clear
4:55 AM 38.5 °F 32.7 °F 32.0 °F 78% 30.18 in 10.0 mi SSW 8.1 mph - N/A   Clear
5:15 AM 38.8 °F 33.2 °F 32.0 °F 76% 30.19 in 10.0 mi SSW 8.1 mph - N/A   Clear
5:35 AM 39.2 °F 33.0 °F 32.0 °F 75% 30.18 in 10.0 mi South 9.2 mph - N/A   Clear
6:15 AM 39.9 °F 33.9 °F 32.0 °F 73% 30.18 in 10.0 mi South 9.2 mph - N/A   Clear
6:35 AM 40.3 °F 34.4 °F 32.0 °F 72% 30.18 in 10.0 mi South 9.2 mph - N/A   Clear
6:55 AM 41.0 °F 34.3 °F 32.2 °F 71% 30.17 in 10.0 mi South 11.5 mph - N/A   Clear
7:15 AM 41.2 °F 35.0 °F 32.4 °F 71% 30.17 in 10.0 mi South 10.4 mph - N/A   Clear
7:35 AM 40.6 °F 35.4 °F 32.9 °F 74% 30.18 in 10.0 mi South 8.1 mph - N/A   Clear
7:55 AM 41.9 °F 36.9 °F 33.6 °F 72% 30.18 in 10.0 mi South 8.1 mph - N/A   Clear
8:15 AM 43.7 °F 38.1 °F 34.0 °F 69% 30.18 in 10.0 mi South 10.4 mph - N/A   Clear
8:35 AM 45.5 °F 39.9 °F 34.9 °F 66% 30.19 in 10.0 mi South 11.5 mph - N/A   Clear
8:55 AM 47.3 °F - 34.7 °F 62% 30.18 in 10.0 mi South 12.7 mph - N/A   Clear
9:15 AM 50.0 °F - 35.6 °F 58% 30.18 in 10.0 mi SSW 10.4 mph - N/A   Clear
9:35 AM 52.0 °F - 35.4 °F 53% 30.18 in 10.0 mi SSW 12.7 mph - N/A   Clear
9:55 AM 53.8 °F - 34.9 °F 49% 30.19 in 10.0 mi SSW 11.5 mph 19.6 mph N/A   Clear
10:15 AM 54.7 °F - 34.7 °F 47% 30.19 in 10.0 mi SSW 13.8 mph 21.9 mph N/A   Clear
10:35 AM 57.0 °F - 35.8 °F 45% 30.19 in 10.0 mi SSW 15.0 mph 19.6 mph N/A   Clear
10:55 AM 57.6 °F - 35.8 °F 44% 30.19 in 10.0 mi SSW 12.7 mph - N/A   Clear
11:15 AM 59.9 °F - 36.0 °F 41% 30.19 in 10.0 mi SSW 13.8 mph - N/A   Clear
11:35 AM 62.4 °F - 34.0 °F 35% 30.18 in 10.0 mi SW 16.1 mph 20.7 mph N/A   Clear
11:55 AM 62.6 °F - 33.8 °F 34% 30.17 in 10.0 mi SSW 16.1 mph 20.7 mph N/A   Clear
12:15 PM 64.4 °F - 35.6 °F 34% 30.15 in 10.0 mi SSW 16.1 mph 24.2 mph N/A   Clear
12:35 PM 65.3 °F - 34.9 °F 32% 30.14 in 10.0 mi SW 13.8 mph 24.2 mph N/A   Clear
12:55 PM 66.6 °F - 35.2 °F 31% 30.13 in 10.0 mi SSW 17.3 mph 21.9 mph N/A   Clear
1:15 PM 67.5 °F - 35.6 °F 31% 30.13 in 10.0 mi SW 16.1 mph 20.7 mph N/A   Clear
1:35 PM 67.5 °F - 35.6 °F 31% 30.12 in 10.0 mi SW 13.8 mph - N/A   Clear
1:55 PM 69.1 °F - 36.0 °F 30% 30.12 in 10.0 mi SW 17.3 mph 21.9 mph N/A   Clear
2:15 PM 69.6 °F - 36.3 °F 29% 30.11 in 10.0 mi SSW 16.1 mph 23.0 mph N/A   Clear
2:35 PM 69.4 °F - 36.3 °F 30% 30.10 in 10.0 mi SW 17.3 mph - N/A   Clear
2:55 PM 69.6 °F - 36.5 °F 30% 30.10 in 10.0 mi SW 13.8 mph 19.6 mph N/A   Clear
3:15 PM 69.8 °F - 37.4 °F 31% 30.10 in 10.0 mi SSW 11.5 mph 23.0 mph N/A   Clear
3:35 PM 70.3 °F - 36.9 °F 29% 30.09 in 10.0 mi SW 10.4 mph - N/A   Clear
3:55 PM 70.5 °F - 37.2 °F 30% 30.08 in 10.0 mi SSW 10.4 mph 16.1 mph N/A   Clear
4:15 PM 71.6 °F - 37.4 °F 29% 30.08 in 10.0 mi SSW 11.5 mph - N/A   Clear
4:35 PM 70.5 °F - 37.6 °F 30% 30.09 in 10.0 mi SW 9.2 mph - N/A   Clear
4:55 PM 68.0 °F - 37.4 °F 33% 30.09 in 10.0 mi SW 10.4 mph 16.1 mph N/A   Clear
5:15 PM 68.0 °F - 38.8 °F 34% 30.10 in 10.0 mi WSW 6.9 mph - N/A   Clear
5:35 PM 68.0 °F - 41.0 °F 37% 30.10 in 10.0 mi SW 6.9 mph - N/A   Clear
5:55 PM 66.4 °F - 41.0 °F 40% 30.10 in 10.0 mi SW 6.9 mph - N/A   Clear
6:15 PM 64.4 °F - 41.9 °F 44% 30.10 in 10.0 mi SSW 5.8 mph - N/A   Clear
6:35 PM 63.0 °F - 42.6 °F 47% 30.11 in 10.0 mi SSW 5.8 mph - N/A   Clear
6:55 PM 61.9 °F - 43.2 °F 50% 30.11 in 10.0 mi SSW 5.8 mph - N/A   Clear
7:15 PM 61.3 °F - 43.9 °F 53% 30.11 in 10.0 mi South 5.8 mph - N/A   Scattered Clouds
7:35 PM 60.8 °F - 43.7 °F 53% 30.12 in 10.0 mi South 6.9 mph - N/A   Scattered Clouds
7:55 PM 60.8 °F - 44.6 °F 55% 30.13 in 10.0 mi South 8.1 mph - N/A   Clear
8:15 PM 61.7 °F - 44.8 °F 54% 30.13 in 10.0 mi SSW 6.9 mph - N/A   Clear
8:35 PM 61.2 °F - 45.1 °F 56% 30.14 in 10.0 mi South 5.8 mph - N/A   Clear
8:55 PM 59.5 °F - 45.7 °F 60% 30.16 in 10.0 mi NNW 10.4 mph - N/A   Scattered Clouds
9:15 PM 61.0 °F - 45.0 °F 56% 30.19 in 10.0 mi WNW 8.1 mph - N/A   Mostly Cloudy
9:55 PM 59.2 °F - 40.3 °F 50% 30.20 in 10.0 mi North 15.0 mph - N/A   Overcast
10:15 PM 58.3 °F - 39.4 °F 49% 30.22 in 10.0 mi North 18.4 mph - N/A   Overcast
10:35 PM 57.2 °F - 39.2 °F 51% 30.23 in 10.0 mi North 15.0 mph - N/A   Overcast
10:55 PM 57.2 °F - 39.2 °F 51% 30.23 in 10.0 mi NNE 12.7 mph - N/A   Mostly Cloudy
11:35 PM 54.5 °F - 40.1 °F 58% 30.25 in 10.0 mi North 11.5 mph - N/A   Scattered Clouds
11:55 PM 53.1 °F - 40.1 °F 61% 30.26 in 10.0 mi North 12.7 mph - N/A   Clear